Regional Weather Roundup
Issued by NWS

Home | Current Version | Previous Version | Graphics & Text | Print | Product List | Glossary On
Versions: 1 2 3 4 5 6 7 8 9 10 11 12 13 14 15 16 17 18 19 20 21 22 23 24 25 26 27 28 29 30 31 32 33 34 35 36 37 38 39 40 41 42 43 44 45 46 47 48 49 50
000
ASUS43 KIND 050909
RWRIN

WEATHER ROUNDUP FOR INDIANA
NATIONAL WEATHER SERVICE INDIANAPOLIS IN
500 AM EDT TUE MAY 05 2015

NOTE: "FAIR" INDICATES FEW OR NO CLOUDS BELOW 12,000 FEET WITH NO
SIGNIFICANT WEATHER AND/OR OBSTRUCTIONS TO VISIBILITY.

* - STATION DOES NOT REPORT WEATHER SUCH AS PRECIPITATION OR FOG.

+ - STATION NOT QUALITY CONTROLLED BY THE NATIONAL WEATHER SERVICE.
    USE DATA WITH CAUTION...ESPECIALLY DEWPOINT AND RELATIVE
    HUMIDITY OBSERVATIONS.

INZ001>003-010>013-019-020-051000-
NORTHWEST INDIANA

CITY           SKY/WX    TMP DP  RH WIND       PRES   REMARKS
GARY /AIRPORT/ CLOUDY    50  45  82 NE5       30.17S
KNOX *+        CLOUDY    61  55  82 CALM      30.17F VSB 3/4
LA PORTE +     RAIN      61  61 100 NE3       30.19S
MICHIGAN CITY+ RAIN      54  52  94 CALM      30.19F
MONTICELLO +   CLOUDY    60  60 100 CALM      30.17S
VALPARAISO     LGT RAIN  59  58  96 NE5       30.17F FOG

$$

LMZ046-743>745-051000-
SOUTHERN LAKE MICHIGAN

STATION/POSITION TIME  TEMP    WIND        PRES    WAVE
                       AIR SEA DIR/SP/G            HT
                 (UTC) (F)     (DEG/KT/KT) (MB)    (FT)
BURNS HARBOR     0900   49     360/  4/  6 1022.7R
MICHIGAN CITY    0900   49      20/  6/  7   N/A
5NW MICH CITY    0900   47 50   10/ 10/ 12   N/A     1

$$

INZ004-005-014>016-021>024-051000-
NORTH CENTRAL INDIANA

CITY           SKY/WX    TMP DP  RH WIND       PRES   REMARKS
GOSHEN         CLOUDY    60  58  92 E8        30.18R FOG
LOGANSPORT +   CLOUDY    61  59  94 N5        30.18R FOG
PERU/GRISSOM   CLOUDY    62  61  95 S8        30.17R
ROCHESTER +    CLOUDY    63  63 100 E3        30.19R FOG
SOUTH BEND     HVY RAIN  61  56  83 S10       30.22R
WARSAW +       RAIN      61  61 100 S5        30.19R

$$

INZ006>009-017-018-025>027-051000-
NORTHEAST INDIANA

CITY           SKY/WX    TMP DP  RH WIND       PRES   REMARKS
ANGOLA *+      CLOUDY    55  55 100 CALM      30.21R
AUBURN +       RAIN      59  55  88 CALM      30.21R
FORT WAYNE     LGT RAIN  59  58  96 CALM      30.21R
HUNTINGTON +   RAIN      60  59  97 CALM      30.20S

$$

INZ028-029-035-036-043>045-051>053-051000-
WEST CENTRAL INDIANA

CITY           SKY/WX    TMP DP  RH WIND       PRES   REMARKS
CRAWFORDSVL +  MOCLDY    61  54  77 CALM      30.18R
GREENCASTLE +  CLEAR     61  52  72 CALM      30.19R
LAFAYETTE      CLOUDY    60  59  96 E3        30.16S
TERRE HAUTE    PTCLDY    64  55  72 SW7       30.18R

$$

INZ030>032-037>040-046>048-054>057-064-065-051000-
CENTRAL INDIANA

CITY           SKY/WX    TMP DP  RH WIND       PRES   REMARKS
CP ATTERBURY + FOG       52  52 100 CALM      30.21R VSB 1/4
FISHERS *+     CLOUDY    61  61 100 SE7       30.19R
FRANKFORT +    CLOUDY    62  62 100 CALM      30.19R FOG
GREENWOOD *+   MOCLDY    63  59  88 S3        30.20R
INDIANAPOLIS   MOCLDY    64  59  83 S7        30.17R
-EAGLE CREEK   CLOUDY    62  60  93 SE3       30.18R
KOKOMO *+      CLOUDY    61  59  94 E3        30.18R
MARION +       CLOUDY    60  59  97 SE3       30.19S FOG
MT COMFORT *+  MOCLDY    61 N/A N/A S5        30.20R
SHELBYVILLE    PTCLDY    63  58  83 SE3       30.19S
ZIONSVILLE +   CLOUDY    62  59  88 S3        30.19R FOG

$$

INZ033-034-041-042-049-050-058-059-051000-
EAST CENTRAL INDIANA

CITY           SKY/WX    TMP DP  RH WIND       PRES   REMARKS
MUNCIE         CLOUDY    61  60  97 CALM      30.20S

$$

INZ060-061-067>069-081>083-085>088-051000-
SOUTHWEST INDIANA

CITY           SKY/WX    TMP DP  RH WIND       PRES   REMARKS
EVANSVILLE     CLEAR     60  54  80 CALM      30.21R
HUNTINGBURG *+ CLEAR     63  52  67 S5        30.22R
WASHINGTON +   CLEAR     63  53  69 S8        30.19R

$$

INZ062-063-066-070>080-084-089>092-051000-
SOUTH CENTRAL AND SOUTHEAST INDIANA

CITY           SKY/WX    TMP DP  RH WIND       PRES   REMARKS
BEDFORD +      CLEAR     59  54  82 S3        30.21R
BLOOMINGTON    CLEAR     66  53  63 SW7       30.20R
MADISON *+     CLEAR     59  54  82 CALM      30.24R
NORTH VERNON + CLEAR     54  54 100 CALM      30.22R FOG
SEYMOUR +      CLEAR     57  55  94 CALM      30.21R

$$




USA.gov is the U.S. government's official web portal to all federal, state and local government web resources and services.